FW8269 Weather Reports


time (UTC)temp
C
wind
direction
speed
KPH
gust
KPH
rain 1hr
cm
rain 24hr
cm
rain mn
cm
humidity
%
barometer
mb
20260505081546 24 0 0.0 0.0 0.00 0.00 0.00 87 1014.7
20260505080047 24 0 0.0 0.0 0.00 0.00 0.00 87 1014.6
20260505074545 24 0 0.0 0.0 0.00 0.00 0.00 87 1014.6
20260505073044 24 11 4.8 6.4 0.00 0.00 0.00 86 1014.6
20260505071550 25 0 0.0 0.0 0.00 0.00 0.00 86 1014.6
20260505070040 25 0 0.0 0.0 0.00 0.00 0.00 86 1014.7
20260505064538 24 0 0.0 0.0 0.00 0.00 0.00 86 1014.8
20260505063049 25 0 0.0 0.0 0.00 0.00 0.00 85 1014.9
20260505061546 25 0 0.0 0.0 0.00 0.00 0.00 84 1014.9
20260505060043 25 0 0.0 0.0 0.00 0.00 0.00 84 1015.1
20260505054546 25 0 0.0 0.0 0.00 0.00 0.00 84 1015.3
20260505053049 25 0 0.0 0.0 0.00 0.00 0.00 84 1015.5
20260505051542 25 0 0.0 0.0 0.00 0.00 0.00 84 1015.6
20260505041539 26 15 3.2 8.0 0.00 0.00 0.00 83 1016.3
20260505040040 25 26 6.4 11.3 0.00 0.00 0.00 83 1016.5
20260505034545 25 23 8.0 11.3 0.00 0.00 0.00 83 1016.6
20260505033040 26 27 8.0 11.3 0.00 0.00 0.00 83 1016.5
20260505031544 26 27 6.4 9.7 0.00 0.00 0.00 83 1016.7
20260505030041 26 28 6.4 11.3 0.00 0.00 0.00 82 1016.6
20260505024539 26 32 6.4 9.7 0.00 0.00 0.00 82 1016.6
20260505023050 26 27 8.0 11.3 0.00 0.00 0.00 84 1016.4
20260505021544 26 37 6.4 9.7 0.00 0.00 0.00 85 1016.4
20260505020040 26 39 6.4 11.3 0.00 0.00 0.00 85 1016.2
20260505014540 26 51 8.0 12.9 0.00 0.00 0.00 86 1016.0
20260505013045 26 54 6.4 12.9 0.00 0.00 0.00 86 1016.1
20260505011548 26 51 8.0 11.3 0.00 0.00 0.00 86 1015.9
20260505004540 26 54 6.4 9.7 0.00 0.00 0.00 85 1015.4
20260505003043 26 56 6.4 9.7 0.00 0.00 0.00 85 1015.4
20260505001539 27 63 4.8 9.7 0.00 0.00 0.00 84 1015.4
20260505000048 27 68 4.8 8.0 0.00 0.00 0.00 84 1015.4
20260504234543 27 71 8.0 12.9 0.00 0.00 0.00 84 1015.3
20260504233040 27 82 6.4 9.7 0.00 0.00 0.00 84 1015.3
20260504231547 27 93 6.4 14.5 0.00 0.00 0.00 83 1015.1
20260504230044 27 109 9.7 16.1 0.00 0.00 0.00 83 1015.2
20260504224538 27 68 11.3 16.1 0.00 0.00 0.00 83 1015.0
20260504223050 27 71 8.0 19.3 0.00 0.00 0.00 82 1014.6
20260504221554 27 94 9.7 20.9 0.00 0.00 0.00 82 1014.3
20260504220042 27 102 8.0 17.7 0.00 0.00 0.00 82 1014.4
20260504214539 28 101 12.9 19.3 0.00 0.00 0.00 81 1014.1
20260504213059 28 86 12.9 19.3 0.00 0.00 0.00 80 1014.0
20260504211547 28 89 9.7 17.7 0.00 0.00 0.00 79 1014.1
20260504210041 28 102 12.9 17.7 0.00 0.00 0.00 77 1014.2
20260504204538 28 101 9.7 17.7 0.00 0.00 0.00 78 1014.0
20260504203048 28 127 9.7 19.3 0.00 0.00 0.00 78 1014.2
20260504201538 28 112 12.9 20.9 0.00 0.00 0.00 78 1014.4
20260504200044 28 102 16.1 22.5 0.00 0.00 0.00 78 1014.4
20260504194545 28 106 12.9 25.7 0.00 0.00 0.00 79 1014.5
20260504193039 28 103 19.3 27.4 0.00 0.00 0.00 79 1014.6
20260504191541 28 108 19.3 29.0 0.00 0.00 0.00 77 1014.3
20260504190039 28 111 17.7 24.1 0.00 0.00 0.00 78 1014.7
20260504184543 29 97 16.1 24.1 0.00 0.00 0.00 78 1014.9
20260504183043 29 99 16.1 27.4 0.00 0.00 0.00 78 1015.1
20260504181539 28 106 17.7 27.4 0.00 0.00 0.00 78 1015.1
20260504180046 28 113 19.3 27.4 0.00 0.00 0.00 77 1015.3
20260504174543 28 89 19.3 29.0 0.00 0.00 0.00 77 1015.5
20260504173040 28 111 20.9 30.6 0.00 0.00 0.00 77 1015.6
20260504171539 29 89 20.9 32.2 0.00 0.00 0.00 77 1015.9